Orbital Elements at Epoch 2459000.5 (2020-May-31.0) TDB
Reference: JPL 40 (heliocentric ecliptic J2000)
Element | Value | Uncertainty (1-sigma) | Units |
e | .06471142830868308 | 3.748e-08 | |
a | 3.128367381279808 | 1.7325e-08 | au |
q | 2.925926259762897 | 1.1968e-07 | au |
i | 9.587028792237053 | 4.0776e-06 | deg |
node | 288.1592178378722 | 2.4174e-05 | deg |
peri | 193.2839519661669 | 3.9287e-05 | deg |
M | 356.335589852706 | 3.0478e-05 | deg |
tp | 2459021.072005257290 (2020-Jun-20.57200526) | 0.00017112 | TDB |
period | 2021.040657278324 5.53 | 1.6789e-05 4.597e-08 | d yr |
n | .1781260553584317 | 1.4797e-09 | deg/d |
Q | 3.330808502796719 | 1.8446e-08 | au |
|
| | Orbit Determination Parameters
Additional Information
|